GW6501 Weather Reports


time (UTC)temp
F
wind
direction
speed
knots
gust
knots
rain 1hr
in
rain 24hr
in
rain mn
in
humidity
%
barometer
mb
20260506084711 76 178 0.0 0.9 0.00 0.00 0.00 90 1009.9
20260506083604 76 177 0.0 1.7 0.00 0.00 0.00 90 1009.9
20260506082703 76 179 0.0 2.6 0.00 0.00 0.00 89 1010.0
20260506081803 76 190 0.0 2.6 0.00 0.00 0.00 89 1009.7
20260506080903 76 177 0.0 2.6 0.00 0.00 0.00 89 1009.8
20260506072911 76 192 0.9 2.6 0.00 0.00 0.00 89 1009.9
20260506072011 76 203 0.9 2.6 0.00 0.00 0.00 89 1010.0
20260506070903 76 196 0.9 3.5 0.00 0.00 0.00 89 1010.1
20260506062011 76 200 0.9 2.6 0.00 0.00 0.00 88 1010.5
20260506060903 76 199 0.9 2.6 0.00 0.00 0.00 88 1010.7
20260506060211 76 207 0.9 2.6 0.00 0.00 0.00 88 1010.5
20260506050903 76 209 0.9 4.3 0.00 0.00 0.00 89 1010.1
20260506044504 76 184 0.0 1.7 0.00 0.00 0.00 89 1010.4
20260506043603 76 196 0.9 2.6 0.00 0.00 0.00 89 1010.3
20260506042703 75 202 0.9 2.6 0.00 0.00 0.00 90 1010.3
20260506041803 75 199 0.0 2.6 0.00 0.00 0.00 90 1010.3
20260506040903 75 204 0.0 2.6 0.00 0.00 0.00 89 1010.0
20260506040211 75 199 0.0 2.6 0.00 0.00 0.00 89 1009.8
20260506035611 75 204 0.9 2.6 0.00 0.00 0.00 89 1009.8
20260506034503 76 196 0.9 4.3 0.00 0.00 0.00 89 1009.6
20260506033811 76 206 0.9 3.5 0.00 0.00 0.00 89 1009.8
20260506032703 76 202 0.9 3.5 0.00 0.00 0.00 89 1009.4
20260506031803 76 199 0.9 3.5 0.00 0.00 0.00 89 1009.3
20260506030903 76 204 1.7 5.2 0.00 0.00 0.00 89 1009.2
20260506030004 76 194 0.9 4.3 0.00 0.00 0.00 88 1009.4
20260506025403 76 172 0.9 4.3 0.00 0.00 0.00 88 1009.2
20260506024711 76 179 0.9 4.3 0.00 0.00 0.00 88 1009.0
20260506023604 76 203 0.9 3.5 0.00 0.00 0.00 87 1009.1
20260506022703 76 208 0.9 3.5 0.00 0.00 0.00 87 1009.0
20260506022011 76 195 0.9 4.3 0.00 0.00 0.00 87 1009.0
20260506020904 77 197 0.9 3.5 0.00 0.00 0.00 86 1008.9
20260506020004 77 211 0.9 4.3 0.00 0.00 0.00 86 1008.8
20260506015611 77 210 0.9 4.3 0.00 0.00 0.00 86 1008.6
20260506014504 77 198 0.9 4.3 0.00 0.00 0.00 86 1008.2
20260506013811 77 208 0.9 4.3 0.00 0.00 0.00 86 1008.2
20260506012911 78 188 0.9 4.3 0.00 0.00 0.00 85 1007.9
20260506011804 78 197 1.7 5.2 0.00 0.00 0.00 85 1007.9
20260506010904 78 175 1.7 4.3 0.00 0.00 0.00 85 1007.7
20260506010004 78 209 1.7 5.2 0.00 0.00 0.00 85 1007.6
20260506005403 78 196 0.9 2.6 0.00 0.00 0.00 84 1007.6
20260506004504 79 188 0.9 4.3 0.00 0.00 0.00 83 1007.3
20260506003604 79 204 0.9 5.2 0.00 0.00 0.00 82 1007.3
20260506002703 79 188 1.7 5.2 0.00 0.00 0.00 82 1007.5
20260506001803 80 199 0.9 4.3 0.00 0.00 0.00 81 1007.5
20260506000903 80 193 0.9 4.3 0.00 0.00 0.00 81 1007.6
20260506000212 80 186 0.9 4.3 0.00 0.00 0.00 80 1007.6
20260505235403 81 207 1.7 5.2 0.00 0.00 0.00 79 1007.6
20260505234711 81 214 0.9 5.2 0.00 0.00 0.00 78 1007.6
20260505233603 82 209 0.9 3.5 0.00 0.00 0.00 76 1007.4
20260505232703 82 217 1.7 5.2 0.00 0.00 0.00 75 1007.5
20260505231803 83 214 0.9 4.3 0.00 0.00 0.00 72 1007.4
20260505230904 82 216 1.7 7.0 0.00 0.00 0.00 73 1007.8
20260505230211 82 211 2.6 4.3 0.00 0.00 0.00 72 1007.6
20260505225403 83 213 1.7 3.5 0.00 0.00 0.00 71 1007.6
20260505224711 82 214 1.7 6.1 0.00 0.00 0.00 72 1007.6
20260505223603 83 211 1.7 5.2 0.00 0.00 0.00 73 1007.7
20260505222704 82 207 1.7 5.2 0.00 0.00 0.00 72 1007.7
20260505221803 82 210 1.7 4.3 0.00 0.00 0.00 72 1007.8
20260505220904 82 223 2.6 5.2 0.00 0.00 0.00 72 1007.8
20260505220004 82 214 2.6 7.8 0.00 0.00 0.00 72 1007.6
20260505215404 82 219 2.6 7.8 0.00 0.00 0.00 72 1007.8
20260505214711 84 217 1.7 5.2 0.00 0.00 0.00 70 1007.8
20260505213603 82 221 2.6 7.0 0.00 0.00 0.00 71 1007.4
20260505212703 82 208 1.7 7.0 0.00 0.00 0.00 71 1007.6
20260505211803 82 209 1.7 6.1 0.00 0.00 0.00 72 1007.9
20260505210903 82 227 1.7 5.2 0.00 0.00 0.00 73 1008.0
20260505210003 82 203 1.7 5.2 0.00 0.00 0.00 72 1008.2
20260505205404 82 204 1.7 7.0 0.00 0.00 0.00 72 1008.3
20260505204711 82 209 1.7 7.0 0.00 0.00 0.00 72 1008.5
20260505203604 81 204 1.7 5.2 0.00 0.00 0.00 73 1008.6
20260505202703 81 211 1.7 5.2 0.00 0.00 0.00 72 1008.9
20260505201803 82 220 1.7 5.2 0.00 0.00 0.00 73 1009.0
20260505200903 82 216 1.7 5.2 0.00 0.00 0.00 71 1008.9
20260505200004 81 215 1.7 5.2 0.00 0.00 0.00 73 1009.1
20260505195403 82 216 1.7 5.2 0.00 0.00 0.00 71 1009.1
20260505194503 80 212 2.6 5.2 0.00 0.00 0.00 74 1009.3
20260505193603 82 222 2.6 7.0 0.00 0.00 0.00 73 1009.3
20260505192703 81 226 1.7 6.1 0.00 0.00 0.00 73 1009.3
20260505191803 79 220 1.7 5.2 0.00 0.00 0.00 76 1009.4
20260505190903 80 215 1.7 6.1 0.00 0.00 0.00 75 1009.4
20260505190211 79 215 1.7 6.1 0.00 0.00 0.00 75 1009.7
20260505185403 80 219 1.7 6.1 0.00 0.00 0.00 74 1009.7
20260505184503 80 204 0.9 6.1 0.00 0.00 0.00 75 1009.6
20260505183603 79 199 2.6 6.1 0.00 0.00 0.00 76 1009.6
20260505182704 80 221 1.7 5.2 0.00 0.00 0.00 76 1009.7
20260505181804 79 222 2.6 5.2 0.00 0.00 0.00 76 1009.7
20260505180904 78 219 2.6 7.0 0.00 0.00 0.00 77 1009.7
20260505180004 78 202 2.6 5.2 0.00 0.00 0.00 78 1009.8
20260505175404 77 201 1.7 5.2 0.00 0.00 0.00 78 1009.6
20260505174504 78 212 1.7 4.3 0.00 0.00 0.00 78 1009.8
20260505173603 77 209 1.7 5.2 0.00 0.00 0.00 79 1010.1
20260505172704 78 204 1.7 4.3 0.00 0.00 0.00 79 1010.3
20260505172011 77 207 1.7 4.3 0.00 0.00 0.00 79 1010.3
20260505170904 78 203 0.9 4.3 0.00 0.00 0.00 79 1010.4
20260505170004 77 216 1.7 5.2 0.00 0.00 0.00 79 1010.1
20260505165611 77 217 0.9 5.2 0.00 0.00 0.00 79 1010.5
20260505164503 76 220 1.7 5.2 0.00 0.00 0.00 81 1010.4
20260505163811 77 196 1.7 5.2 0.00 0.00 0.00 80 1010.5
20260505162704 77 212 1.7 7.8 0.00 0.00 0.00 79 1010.5
20260505161804 77 208 1.7 5.2 0.00 0.00 0.00 80 1009.9
20260505161111 77 209 1.7 4.3 0.00 0.00 0.00 79 1009.9
20260505152703 75 205 1.7 5.2 0.00 0.00 0.00 83 1009.9
20260505140211 72 197 0.9 5.2 0.00 0.00 0.00 87 1009.8
20260505130211 70 188 0.9 4.3 0.00 0.00 0.00 90 1010.0
20260505124503 70 181 0.9 5.2 0.00 0.00 0.00 91 1009.9
20260505123811 70 177 1.7 5.2 0.00 0.00 0.00 91 1009.6
20260505122703 70 185 1.7 5.2 0.00 0.00 0.00 91 1009.5
20260505121804 70 185 1.7 6.1 0.00 0.00 0.00 91 1009.6
20260505120904 69 183 0.9 6.1 0.00 0.00 0.00 92 1009.3
20260505120004 69 182 0.9 2.6 0.00 0.00 0.00 92 1009.4
20260505115403 69 178 0.9 3.5 0.00 0.00 0.00 92 1009.6
20260505114503 69 184 0.9 3.5 0.00 0.00 0.00 92 1009.6
20260505113603 69 196 0.9 5.2 0.00 0.00 0.00 92 1009.6
20260505112704 68 192 0.9 4.3 0.00 0.00 0.00 92 1009.3
20260505111803 68 185 0.9 4.3 0.00 0.00 0.00 92 1009.3
20260505110904 68 175 0.9 2.6 0.00 0.00 0.00 93 1009.3
20260505110211 68 160 0.0 1.7 0.00 0.00 0.00 92 1009.3
20260505101803 68 182 0.9 3.5 0.00 0.00 0.00 92 1009.3
20260505101111 68 186 0.9 3.5 0.00 0.00 0.00 92 1009.3
20260505100004 67 166 0.9 2.6 0.00 0.00 0.00 92 1009.3
20260505095610 67 170 0.9 2.6 0.00 0.00 0.00 92 1009.3
20260505094710 67 166 0.0 2.6 0.00 0.00 0.00 92 1009.3
20260505093603 68 159 0.9 4.3 0.00 0.00 0.00 91 1009.4
20260505092703 68 163 0.9 4.3 0.00 0.00 0.00 91 1009.5
20260505092011 67 167 0.9 2.6 0.00 0.00 0.00 91 1009.8
20260505090903 68 174 0.9 1.7 0.00 0.00 0.00 90 1009.8
20260505090004 68 176 0.9 2.6 0.00 0.00 0.00 90 1009.8
20260505085404 68 180 0.9 2.6 0.00 0.00 0.00 89 1009.6